Terminal Aerodrome Forecast
Issued by NWS Paducah, KY

Home | Current Version | Previous Version | Text Only | Print | Product List | Glossary On
Versions: 1 2 3 4 5 6 7 8 9 10 11 12 13 14
074
FTUS43 KPAH 212330
TAFEVV
TAF
KEVV 212330Z 2200/2224 15003KT P6SM SKC
      TEMPO 2211/2213 3SM BR
     FM221400 10005KT P6SM FEW035=

USA.gov is the U.S. government's official web portal to all federal, state and local government web resources and services.